Regional Weather Roundup
Issued by NWS

Home | Current Version | Previous Version | Text Only | Print | Product List | Glossary Off
Versions: 1 2 3 4 5 6 7 8 9 10 11 12 13 14 15 16 17 18 19 20 21 22 23 24 25 26 27 28 29 30 31 32 33 34 35 36 37 38 39 40 41 42 43 44 45 46 47 48 49 50

000
ASUS43 KDTX 251601
RWRMI
MICHIGAN HOURLY REGIONAL WEATHER ROUNDUP
NATIONAL WEATHER SERVICE DETROIT/PONTIAC MI
1200 PM EDT MON JUL 25 2016

NOTE: "FAIR" INDICATES FEW OR NO CLOUDS BELOW 12,000 FEET WITH NO
SIGNIFICANT WEATHER AND/OR OBSTRUCTION TO VISIBILITY.

MIZ047>049-052>055-059>063-066>070-074>076-081>083-251700-
SOUTHEAST LOWER MICHIGAN

CITY           SKY/WX    TMP DP  RH WIND       PRES   REMARKS
ADRIAN         CLOUDY    79  71  76 SW12      29.98R
ALMA           MOSUNNY   83  67  58 NW9       29.95S
ANN ARBOR      MOSUNNY   85  69  58 W10       29.95R
BAD AXE        SUNNY     83  62  48 W9        29.92S
CARO           SUNNY     83  65  54 W7        29.92S
DETROIT CITY   CLOUDY    84  71  65 VRB7      29.92F
DETROIT        CLOUDY    87  68  52 W9        29.94S HX  90
FLINT          PTSUNNY   88  67  49 W9        29.93S HX  91
GROSSE ILE     CLOUDY    82  71  71 MISG      29.93S
HOWELL         PTSUNNY   84  67  56 NW10G16   29.95S

CITY           SKY/WX    TMP DP  RH WIND       PRES   REMARKS
JACKSON        SUNNY     83  68  60 W10G21    29.97R
LAMBERTVILLE   CLOUDY    79  71  75 W6        29.98S
LANSING        MOSUNNY   82  67  60 W12       29.96R
LAPEER         PTSUNNY   83  69  63 NW9       29.93S
MASON          MOSUNNY   84  66  55 NW12G18   29.96R
MONROE         CLOUDY    80  74  80 SW9       29.95R
MT. CLEMENS    PTSUNNY   85  71  62 W10       29.90F HX  90
PONTIAC        PTSUNNY   84  68  58 NW13      29.93S
PORT HOPE        N/A     80  68  66 NW8       29.89R
PORT HURON     CLOUDY    81  72  74 W5        29.92S
TRI CITIES     MOSUNNY   82  68  62 W8        29.94R
MIDLAND        NOT AVBL
TROY           SUNNY     87  65  49 W12       29.94S
SAGINAW HB     SUNNY     82  63  51 W10       29.93R
$$
MIZ043>046-050>051-056>058-064>065-071>073-077>080-251700-
SOUTHWEST LOWER MICHIGAN

CITY           SKY/WX    TMP DP  RH WIND       PRES   REMARKS
BATTLE CREEK   MOSUNNY   80  67  64 NW12G17   29.99R
BENTON HARBOR  SUNNY     79  66  64 VRB7      30.00R
BIG RAPIDS     MOSUNNY   80  67  64 NW8       29.96R
COLDWATER      MOSUNNY   82  70  66 NW7       29.99S
FREMONT        FAIR      81  63  54 NW10G16   29.97R
HOLLAND        SUNNY     80  68  66 NW8       29.99R
GRAND RAPIDS   MOSUNNY   83  65  54 NW10      29.97R
IONIA          FAIR      81  63  53 N7        29.95S
KALAMAZOO      MOSUNNY   82  66  58 W13       29.98R
LUDINGTON      SUNNY     77  66  67 W3        29.96R
MARSHALL       MOSUNNY   85  69  60 W10       29.97S
MOUNT PLEASANT MOSUNNY   83  63  50 W10       29.94R
MUSKEGON       MOSUNNY   80  68  66 W7        29.98R
SOUTH HAVEN    SUNNY     77  66  69 N7        30.00R
$$
MIZ016>042-251700-
NORTHERN LOWER MICHIGAN

CITY           SKY/WX    TMP DP  RH WIND       PRES   REMARKS
ALPENA         PTSUNNY   84  60  44 NW10G16   29.87R
BEAVER ISLAND  SUNNY     76  65  67 W10       29.90S
BELLAIRE       SUNNY     77  61  58 NW5       29.92R
CADILLAC       MOSUNNY   79  62  56 W8G18     29.95S
CHARLEVOIX     SUNNY     76  64  65 W15       29.94S
FRANKFORT      SUNNY     76  65  68 W8        29.95R
GAYLORD        MOSUNNY   77  58  51 W14G23    29.92R
GRAYLING       MOSUNNY   80  62  54 W13G18    29.94R
HARBOR SPRINGS SUNNY     73  65  76 W8G17     29.90R
HOUGHTON LAKE  MOSUNNY   81  61  50 W14       29.94R
MANISTEE       SUNNY     77  65  66 W9        29.96R
OSCODA         PTSUNNY   83  61  46 W10       29.88R
PELLSTON       MOSUNNY   77  61  57 NW15      29.90R
ROGERS CITY    MOSUNNY   80  62  53 W10G20    29.87S
TRAVERSE CITY  MOSUNNY   82  60  47 W14       29.91R
$$
MIZ007>008-015-251700-
EASTERN UPPER MICHIGAN

CITY           SKY/WX    TMP DP  RH WIND       PRES   REMARKS
KINROSS        PTSUNNY   73  62  68 NW15G22   29.87R
MACKINAC ISLAN SUNNY     73  63  70 W14G20    29.88R
S. S. MARIE    CLOUDY    71  61  70 NW15      29.86R
$$
MIZ004>006-011>014-085-251700-
CENTRAL UPPER MICHIGAN

CITY           SKY/WX    TMP DP  RH WIND       PRES   REMARKS
ESCANABA       SUNNY     79  59  50 NW12      29.90R
MENOMINEE      SUNNY    N/A N/A N/A NW8G16    29.94S
SAWYER-GWINN   MOSUNNY   73  57  56 NW15G24   29.93R
$$
MIZ001>003-009>011-084-251700-
WESTERN UPPER MICHIGAN

CITY           SKY/WX    TMP DP  RH WIND       PRES   REMARKS
IRON MOUNTAIN  SUNNY     77  55  46 NW18G26   29.95R
HOUGHTON       MOSUNNY   72  58  61 W20       29.94R
COPPER HARBOR    N/A     71  58  63 N18G25    29.90R
IRONWOOD       MOSUNNY   72  59  64 W9        30.00R
$$

ABBREVIATIONS USED IN REMARKS
   TC - TEMPERATURE IN CELSIUS
  WCI - WIND CHILL INDEX
   HX - HEAT INDEX
  VSB - VISIBILITY





USA.gov is the U.S. government's official web portal to all federal, state and local government web resources and services.